VBD207 BIKF-EGPB

Flight info

Callsign VBD207
Flight time 1h 46m
Altitude 31000
Route OSKUM1B OSKUM DCT 63N016W DCT H6214 DCT 62N012W DCT H6110 DCT PEMOS DCT RIXUN DCT SOSAR DCT ATLUG DCT ELPAP
Aircraft B738/M-SDE2E3FGHIRWXY/LB1

Departure

Time 2026-04-15 04:35
Airport Keflavik International Airport (BIKF)

Arrival

Time 2026-04-15 06:21
Airport Sumburgh Airport (EGPB)
Time Latitude Longitude Altitude Speed Heading
2026-04-15 04:08 63.99275 -22.62452 139 ft 0 kts 360°
2026-04-15 04:24 63.99260 -22.62452 139 ft 3 kts 359°
2026-04-15 04:24 63.99236 -22.62451 139 ft 3 kts 354°
2026-04-15 04:25 63.99215 -22.62429 139 ft 3 kts 305°
2026-04-15 04:25 63.99209 -22.62382 139 ft 0 kts 267°
2026-04-15 04:27 63.99208 -22.62400 139 ft 5 kts 261°
2026-04-15 04:27 63.99174 -22.62472 139 ft 7 kts 240°
2026-04-15 04:27 63.99170 -22.62629 139 ft 12 kts 264°
2026-04-15 04:27 63.99126 -22.62712 139 ft 11 kts 193°
2026-04-15 04:28 63.99060 -22.62752 138 ft 8 kts 197°
2026-04-15 04:28 63.98995 -22.62798 137 ft 11 kts 197°
2026-04-15 04:28 63.98919 -22.62853 136 ft 13 kts 197°
2026-04-15 04:28 63.98862 -22.62957 134 ft 12 kts 253°
2026-04-15 04:29 63.98855 -22.63166 133 ft 14 kts 268°
2026-04-15 04:29 63.98855 -22.63418 129 ft 18 kts 270°
2026-04-15 04:29 63.98855 -22.63705 124 ft 17 kts 270°
2026-04-15 04:29 63.98856 -22.63930 122 ft 13 kts 270°
2026-04-15 04:30 63.98857 -22.64141 125 ft 14 kts 270°
2026-04-15 04:30 63.98857 -22.64385 119 ft 17 kts 270°
2026-04-15 04:30 63.98856 -22.64657 119 ft 18 kts 269°
2026-04-15 04:30 63.98855 -22.64793 117 ft 1 kts 268°
2026-04-15 04:31 63.98854 -22.64848 114 ft 6 kts 267°
2026-04-15 04:31 63.98855 -22.64991 113 ft 11 kts 272°
2026-04-15 04:31 63.98855 -22.65178 115 ft 12 kts 269°
2026-04-15 04:31 63.98851 -22.65362 112 ft 12 kts 259°
2026-04-15 04:32 63.98790 -22.65463 117 ft 12 kts 188°
2026-04-15 04:32 63.98703 -22.65465 113 ft 13 kts 180°
2026-04-15 04:32 63.98605 -22.65466 116 ft 15 kts 181°
2026-04-15 04:32 63.98514 -22.65440 118 ft 12 kts 135°
2026-04-15 04:33 63.98505 -22.65361 119 ft 0 kts 90°
2026-04-15 04:34 63.98505 -22.65358 119 ft 0 kts 90°
2026-04-15 04:34 63.98504 -22.65220 119 ft 31 kts 90°
2026-04-15 04:34 63.98505 -22.64208 125 ft 95 kts 90°
2026-04-15 04:35 63.98505 -22.62310 145 ft 146 kts 89°
2026-04-15 04:35 63.98539 -22.59788 522 ft 163 kts 86°
2026-04-15 04:35 63.98516 -22.57297 1439 ft 155 kts 87°
2026-04-15 04:35 63.98505 -22.54693 1936 ft 173 kts 83°
2026-04-15 04:36 63.98515 -22.51796 2319 ft 193 kts 85°
2026-04-15 04:36 63.98504 -22.48692 2880 ft 196 kts 86°
2026-04-15 04:36 63.98494 -22.45623 3537 ft 196 kts 86°
2026-04-15 04:36 63.98393 -22.42336 3918 ft 218 kts 98°
2026-04-15 04:37 63.97873 -22.39013 4693 ft 224 kts 107°
2026-04-15 04:37 63.97322 -22.35745 5489 ft 220 kts 105°
2026-04-15 04:37 63.96808 -22.32547 5928 ft 212 kts 105°
2026-04-15 04:37 63.96315 -22.29375 5986 ft 217 kts 106°
2026-04-15 04:38 63.95786 -22.26160 5991 ft 217 kts 107°
2026-04-15 04:38 63.95249 -22.22981 5988 ft 215 kts 105°
2026-04-15 04:38 63.94731 -22.19787 5988 ft 215 kts 104°
2026-04-15 04:38 63.94234 -22.16576 5992 ft 215 kts 105°
2026-04-15 04:39 63.93696 -22.13388 6009 ft 215 kts 106°
2026-04-15 04:39 63.93156 -22.10211 6014 ft 215 kts 105°
2026-04-15 04:39 63.92617 -22.07025 6159 ft 218 kts 107°
2026-04-15 04:39 63.92083 -22.03806 6493 ft 219 kts 106°
2026-04-15 04:40 63.91559 -22.00613 6502 ft 219 kts 106°
2026-04-15 04:40 63.91035 -21.97409 6510 ft 215 kts 106°
2026-04-15 04:40 63.90513 -21.94237 6509 ft 213 kts 106°
2026-04-15 04:40 63.89994 -21.91106 6504 ft 210 kts 106°
2026-04-15 04:41 63.89478 -21.88004 6504 ft 211 kts 106°
2026-04-15 04:41 63.88958 -21.84862 6522 ft 215 kts 106°
2026-04-15 04:41 63.88422 -21.81635 6933 ft 221 kts 107°
2026-04-15 04:41 63.87879 -21.78394 7734 ft 221 kts 107°
2026-04-15 04:42 63.87343 -21.75204 8596 ft 219 kts 108°
2026-04-15 04:42 63.86798 -21.71966 9163 ft 219 kts 109°
2026-04-15 04:42 63.86247 -21.68689 9474 ft 226 kts 110°
2026-04-15 04:42 63.85686 -21.65349 9490 ft 228 kts 110°
2026-04-15 04:43 63.85118 -21.61980 9495 ft 230 kts 110°
2026-04-15 04:43 63.84545 -21.58594 9507 ft 231 kts 110°
2026-04-15 04:43 63.84058 -21.55102 9545 ft 238 kts 105°
2026-04-15 04:43 63.83634 -21.51305 9722 ft 260 kts 104°
2026-04-15 04:44 63.83181 -21.47148 9868 ft 283 kts 104°
2026-04-15 04:44 63.82689 -21.42659 10029 ft 304 kts 105°
2026-04-15 04:44 63.82162 -21.37914 10175 ft 324 kts 105°
2026-04-15 04:44 63.81596 -21.32885 10622 ft 334 kts 106°
2026-04-15 04:45 63.81010 -21.27740 11161 ft 341 kts 106°
2026-04-15 04:45 63.80409 -21.22484 11662 ft 349 kts 107°
2026-04-15 04:45 63.79792 -21.17127 12191 ft 355 kts 108°
2026-04-15 04:45 63.79163 -21.11688 12729 ft 360 kts 108°
2026-04-15 04:46 63.78531 -21.06236 13491 ft 358 kts 108°
2026-04-15 04:46 63.77248 -20.95225 14653 ft 365 kts 108°
2026-04-15 04:46 63.76597 -20.89665 15231 ft 368 kts 108°
2026-04-15 04:47 63.75948 -20.84140 15793 ft 370 kts 108°
2026-04-15 04:47 63.75283 -20.78503 16348 ft 372 kts 108°
2026-04-15 04:47 63.74613 -20.72840 16883 ft 375 kts 108°
2026-04-15 04:47 63.73934 -20.67125 17399 ft 377 kts 108°
2026-04-15 04:48 63.73251 -20.61388 17890 ft 380 kts 108°
2026-04-15 04:48 63.72559 -20.55589 18366 ft 383 kts 108°
2026-04-15 04:48 63.71858 -20.49768 18814 ft 387 kts 108°
2026-04-15 04:48 63.71148 -20.43894 19265 ft 390 kts 109°
2026-04-15 04:49 63.70382 -20.38019 19702 ft 392 kts 110°
2026-04-15 04:49 63.69562 -20.32224 20126 ft 394 kts 111°
2026-04-15 04:49 63.68707 -20.26348 20571 ft 396 kts 111°
2026-04-15 04:49 63.67838 -20.20422 20910 ft 400 kts 111°
2026-04-15 04:50 63.66961 -20.14431 21280 ft 403 kts 111°
2026-04-15 04:50 63.66086 -20.08428 21694 ft 405 kts 111°
2026-04-15 04:50 63.65207 -20.02384 22088 ft 407 kts 111°
2026-04-15 04:50 63.64324 -19.96309 22438 ft 410 kts 111°
2026-04-15 04:51 63.63434 -19.90199 22763 ft 412 kts 111°
2026-04-15 04:51 63.62539 -19.84063 23145 ft 414 kts 112°
2026-04-15 04:51 63.61650 -19.77984 23493 ft 416 kts 112°
2026-04-15 04:51 63.60741 -19.71794 23853 ft 418 kts 112°
2026-04-15 04:52 63.59826 -19.65589 24165 ft 420 kts 112°
2026-04-15 04:52 63.58902 -19.59351 24498 ft 422 kts 112°
2026-04-15 04:52 63.57972 -19.53090 24864 ft 423 kts 112°
2026-04-15 04:52 63.57039 -19.46826 25197 ft 424 kts 112°
2026-04-15 04:53 63.56100 -19.40544 25512 ft 425 kts 113°
2026-04-15 04:53 63.55156 -19.34257 25826 ft 426 kts 113°
2026-04-15 04:53 63.54207 -19.27953 26108 ft 427 kts 113°
2026-04-15 04:53 63.53253 -19.21631 26395 ft 428 kts 114°
2026-04-15 04:54 63.52308 -19.15399 26749 ft 427 kts 114°
2026-04-15 04:54 63.51350 -19.09107 27181 ft 425 kts 114°
2026-04-15 04:54 63.50398 -19.02867 27556 ft 423 kts 115°
2026-04-15 04:54 63.49444 -18.96639 27934 ft 422 kts 115°
2026-04-15 04:55 63.48491 -18.90440 28294 ft 421 kts 115°
2026-04-15 04:55 63.47537 -18.84271 28630 ft 420 kts 116°
2026-04-15 04:55 63.46582 -18.78104 29003 ft 418 kts 116°
2026-04-15 04:55 63.45630 -18.71978 29349 ft 417 kts 116°
2026-04-15 04:56 63.44690 -18.65949 29659 ft 416 kts 117°
2026-04-15 04:56 63.43734 -18.59844 29968 ft 416 kts 117°
2026-04-15 04:56 63.42777 -18.53750 30217 ft 416 kts 117°
2026-04-15 04:56 63.41815 -18.47657 30446 ft 417 kts 117°
2026-04-15 04:57 63.40849 -18.41556 30592 ft 418 kts 117°
2026-04-15 04:57 63.39873 -18.35416 30590 ft 421 kts 117°
2026-04-15 04:57 63.37918 -18.23137 30605 ft 418 kts 118°
2026-04-15 04:58 63.35979 -18.11053 30607 ft 415 kts 118°
2026-04-15 04:58 63.34028 -17.98989 30611 ft 413 kts 118°
2026-04-15 04:59 63.32076 -17.86988 30690 ft 412 kts 119°
2026-04-15 04:59 63.30117 -17.75036 30770 ft 411 kts 119°
2026-04-15 05:00 63.28143 -17.63060 30780 ft 414 kts 119°
2026-04-15 05:00 63.26158 -17.51091 30779 ft 417 kts 120°
2026-04-15 05:01 63.24136 -17.38963 30782 ft 420 kts 120°
2026-04-15 05:01 63.22095 -17.26810 30772 ft 421 kts 120°
2026-04-15 05:02 63.20037 -17.14646 30778 ft 422 kts 120°
2026-04-15 05:02 63.17986 -17.02580 30772 ft 420 kts 120°
2026-04-15 05:03 63.15946 -16.90660 30775 ft 419 kts 121°
2026-04-15 05:03 63.13881 -16.78673 30777 ft 418 kts 121°
2026-04-15 05:04 63.11766 -16.66486 30778 ft 418 kts 121°
2026-04-15 05:04 63.09680 -16.54533 30777 ft 417 kts 121°
2026-04-15 05:05 63.07601 -16.42688 30775 ft 416 kts 122°
2026-04-15 05:05 63.05501 -16.30801 30779 ft 416 kts 122°
2026-04-15 05:06 63.03391 -16.18940 30777 ft 415 kts 122°
2026-04-15 05:06 63.01274 -16.07091 30778 ft 416 kts 122°
2026-04-15 05:07 62.99003 -15.95579 30776 ft 408 kts 128°
2026-04-15 05:07 62.96342 -15.84563 30784 ft 410 kts 129°
2026-04-15 05:08 62.93634 -15.73484 30783 ft 413 kts 129°
2026-04-15 05:08 62.90914 -15.62323 30780 ft 416 kts 128°
2026-04-15 05:09 62.88183 -15.51118 30775 ft 417 kts 128°
2026-04-15 05:09 62.85455 -15.39968 30778 ft 418 kts 129°
2026-04-15 05:10 62.82697 -15.28759 30776 ft 418 kts 129°
2026-04-15 05:10 62.79939 -15.17599 30783 ft 417 kts 129°
2026-04-15 05:11 62.77174 -15.06468 30797 ft 416 kts 129°
2026-04-15 05:11 62.74417 -14.95433 30784 ft 417 kts 129°
2026-04-15 05:12 62.71634 -14.84341 30783 ft 417 kts 129°
2026-04-15 05:12 62.68835 -14.73257 30790 ft 418 kts 129°
2026-04-15 05:13 62.66021 -14.62153 30782 ft 420 kts 129°
2026-04-15 05:13 62.63189 -14.51048 30774 ft 421 kts 129°
2026-04-15 05:14 62.60353 -14.39985 30769 ft 423 kts 129°
2026-04-15 05:14 62.57481 -14.28816 30772 ft 425 kts 129°
2026-04-15 05:15 62.54586 -14.17637 30805 ft 426 kts 129°
2026-04-15 05:15 62.51686 -14.06463 30820 ft 426 kts 129°
2026-04-15 05:16 62.48817 -13.95339 30809 ft 428 kts 127°
2026-04-15 05:16 62.46072 -13.83907 30808 ft 430 kts 127°
2026-04-15 05:17 62.43341 -13.72421 30801 ft 430 kts 127°
2026-04-15 05:17 62.40585 -13.60976 30804 ft 430 kts 127°
2026-04-15 05:18 62.37807 -13.49549 30809 ft 431 kts 127°
2026-04-15 05:18 62.35027 -13.38209 30798 ft 431 kts 127°
2026-04-15 05:19 62.32215 -13.26797 30810 ft 432 kts 127°
2026-04-15 05:19 62.29396 -13.15403 30807 ft 433 kts 127°
2026-04-15 05:20 62.26557 -13.03997 30802 ft 434 kts 127°
2026-04-15 05:20 62.23699 -12.92575 30804 ft 434 kts 127°
2026-04-15 05:21 62.20849 -12.81239 30802 ft 436 kts 127°
2026-04-15 05:21 62.17963 -12.69825 30808 ft 436 kts 127°
2026-04-15 05:22 62.15066 -12.58412 30805 ft 437 kts 127°
2026-04-15 05:22 62.12145 -12.46974 30768 ft 440 kts 127°
2026-04-15 05:23 62.09220 -12.35577 30759 ft 441 kts 127°
2026-04-15 05:23 62.06259 -12.24090 30759 ft 442 kts 127°
2026-04-15 05:24 62.03287 -12.12627 30758 ft 442 kts 127°
2026-04-15 05:24 62.00304 -12.01169 30759 ft 442 kts 127°
2026-04-15 05:25 61.97422 -11.89599 30761 ft 443 kts 126°
2026-04-15 05:25 61.94672 -11.78002 30757 ft 442 kts 125°
2026-04-15 05:26 61.91890 -11.66364 30762 ft 441 kts 126°
2026-04-15 05:26 61.89086 -11.54792 30758 ft 441 kts 126°
2026-04-15 05:27 61.86274 -11.43284 30759 ft 439 kts 126°
2026-04-15 05:27 61.83472 -11.31886 30754 ft 439 kts 126°
2026-04-15 05:28 61.80650 -11.20461 30758 ft 438 kts 126°
2026-04-15 05:28 61.77815 -11.09046 30758 ft 438 kts 126°
2026-04-15 05:29 61.74971 -10.97650 30761 ft 439 kts 126°
2026-04-15 05:29 61.72112 -10.86253 30756 ft 440 kts 126°
2026-04-15 05:30 61.69256 -10.74925 30759 ft 441 kts 126°
2026-04-15 05:30 61.66367 -10.63527 30760 ft 441 kts 126°
2026-04-15 05:31 61.63464 -10.52131 30758 ft 443 kts 126°
2026-04-15 05:31 61.60542 -10.40716 30762 ft 444 kts 126°
2026-04-15 05:32 61.57624 -10.29375 30757 ft 445 kts 126°
2026-04-15 05:32 61.54669 -10.17939 30760 ft 446 kts 126°
2026-04-15 05:33 61.51703 -10.06521 30761 ft 447 kts 126°
2026-04-15 05:33 61.49545 -9.94071 30754 ft 466 kts 108°
2026-04-15 05:34 61.48672 -9.80519 30755 ft 471 kts 104°
2026-04-15 05:34 61.47911 -9.67011 30759 ft 471 kts 104°
2026-04-15 05:35 61.47096 -9.53407 30759 ft 471 kts 104°
2026-04-15 05:35 61.46236 -9.39844 30768 ft 470 kts 105°
2026-04-15 05:36 61.45350 -9.26293 30767 ft 470 kts 105°
2026-04-15 05:36 61.44457 -9.12850 30769 ft 470 kts 105°
2026-04-15 05:37 61.43546 -8.99330 30765 ft 470 kts 105°
2026-04-15 05:37 61.42621 -8.85805 30769 ft 470 kts 105°
2026-04-15 05:38 61.41683 -8.72290 30768 ft 471 kts 105°
2026-04-15 05:38 61.40729 -8.58749 30769 ft 472 kts 105°
2026-04-15 05:39 61.39766 -8.45273 30769 ft 473 kts 105°
2026-04-15 05:39 61.38783 -8.31692 30766 ft 474 kts 105°
2026-04-15 05:40 61.37784 -8.18103 30768 ft 475 kts 105°
2026-04-15 05:40 61.36768 -8.04488 30770 ft 475 kts 105°
2026-04-15 05:41 61.35913 -7.93156 30765 ft 476 kts 105°
2026-04-15 05:41 61.34699 -7.77315 30772 ft 477 kts 105°
2026-04-15 05:42 61.33637 -7.63646 30766 ft 478 kts 105°
2026-04-15 05:42 61.32745 -7.52289 30771 ft 478 kts 105°
2026-04-15 05:43 61.31657 -7.38628 30768 ft 478 kts 105°
2026-04-15 05:43 61.30555 -7.24974 30768 ft 479 kts 105°
2026-04-15 05:44 61.29437 -7.11293 30776 ft 479 kts 105°
2026-04-15 05:44 61.28312 -6.97729 30777 ft 479 kts 105°
2026-04-15 05:45 61.27167 -6.84069 30777 ft 480 kts 105°
2026-04-15 05:45 61.26008 -6.70423 30779 ft 480 kts 105°
2026-04-15 05:46 61.24833 -6.56762 30779 ft 480 kts 105°
2026-04-15 05:46 61.23642 -6.43111 30779 ft 481 kts 105°
2026-04-15 05:47 61.22446 -6.29533 30775 ft 482 kts 105°
2026-04-15 05:47 61.21225 -6.15851 30783 ft 482 kts 105°
2026-04-15 05:48 61.19990 -6.02165 30798 ft 483 kts 105°
2026-04-15 05:48 61.18740 -5.88495 30786 ft 484 kts 105°
2026-04-15 05:49 61.17480 -5.74870 30802 ft 485 kts 105°
2026-04-15 05:49 61.16198 -5.61162 30791 ft 486 kts 105°
2026-04-15 05:50 61.14897 -5.47415 30802 ft 486 kts 105°
2026-04-15 05:51 61.12919 -5.26821 30804 ft 487 kts 105°
2026-04-15 05:51 61.11591 -5.13180 30804 ft 487 kts 105°
2026-04-15 05:52 61.10241 -4.99452 30814 ft 487 kts 105°
2026-04-15 05:52 61.08875 -4.85737 30817 ft 487 kts 105°
2026-04-15 05:53 61.07494 -4.72021 30821 ft 487 kts 105°
2026-04-15 05:53 61.06109 -4.58405 30826 ft 488 kts 105°
2026-04-15 05:54 61.04699 -4.44690 30826 ft 489 kts 105°
2026-04-15 05:54 61.03274 -4.30979 30832 ft 489 kts 105°
2026-04-15 05:55 61.01835 -4.17265 30832 ft 489 kts 105°
2026-04-15 05:55 61.00396 -4.03643 30842 ft 490 kts 104°
2026-04-15 05:56 60.99880 -3.89576 30862 ft 495 kts 91°
2026-04-15 05:56 60.99997 -3.75382 30858 ft 496 kts 91°
2026-04-15 05:57 61.00081 -3.61144 30868 ft 497 kts 91°
2026-04-15 05:57 61.00096 -3.47016 30874 ft 497 kts 91°
2026-04-15 05:57 61.00091 -3.39879 30568 ft 502 kts 91°
2026-04-15 05:58 61.00081 -3.32657 29877 ft 503 kts 92°
2026-04-15 05:58 61.00067 -3.25457 29137 ft 503 kts 91°
2026-04-15 05:58 61.00052 -3.18261 28326 ft 502 kts 91°
2026-04-15 05:58 61.00036 -3.11063 27483 ft 502 kts 91°
2026-04-15 05:59 61.00016 -3.03896 26882 ft 497 kts 91°
2026-04-15 05:59 60.99996 -2.96831 26260 ft 491 kts 91°
2026-04-15 05:59 61.00004 -2.89912 25660 ft 486 kts 90°
2026-04-15 05:59 61.00027 -2.83001 25074 ft 480 kts 90°
2026-04-15 06:00 61.00051 -2.76171 24492 ft 474 kts 90°
2026-04-15 06:00 61.00071 -2.69427 23905 ft 468 kts 90°
2026-04-15 06:00 61.00084 -2.62745 23318 ft 463 kts 90°
2026-04-15 06:00 61.00090 -2.56154 22734 ft 457 kts 91°
2026-04-15 06:01 61.00092 -2.49641 22150 ft 452 kts 91°
2026-04-15 06:01 61.00090 -2.43200 21504 ft 449 kts 91°
2026-04-15 06:01 61.00085 -2.36819 20908 ft 439 kts 91°
2026-04-15 06:01 61.00078 -2.30624 20334 ft 426 kts 91°
2026-04-15 06:02 61.00070 -2.24558 19803 ft 421 kts 91°
2026-04-15 06:02 61.00057 -2.18554 19261 ft 417 kts 91°
2026-04-15 06:02 61.00034 -2.12681 18720 ft 413 kts 94°
2026-04-15 06:02 60.99476 -2.06951 18153 ft 407 kts 114°
2026-04-15 06:03 60.98047 -2.02016 17615 ft 399 kts 132°
2026-04-15 06:03 60.96022 -1.98193 16979 ft 395 kts 147°
2026-04-15 06:03 60.93596 -1.95664 16418 ft 389 kts 162°
2026-04-15 06:03 60.91040 -1.93950 15878 ft 385 kts 164°
2026-04-15 06:04 60.88491 -1.92354 15327 ft 382 kts 164°
2026-04-15 06:04 60.85957 -1.90793 14780 ft 378 kts 164°
2026-04-15 06:04 60.83479 -1.89259 14247 ft 376 kts 164°
2026-04-15 06:04 60.80989 -1.87704 13704 ft 372 kts 163°
2026-04-15 06:05 60.78523 -1.86149 13168 ft 369 kts 163°
2026-04-15 06:05 60.76083 -1.84601 12630 ft 366 kts 163°
2026-04-15 06:05 60.73658 -1.83055 12092 ft 363 kts 163°
2026-04-15 06:05 60.71257 -1.81525 11554 ft 360 kts 163°
2026-04-15 06:06 60.68877 -1.80008 11066 ft 356 kts 163°
2026-04-15 06:06 60.66578 -1.78543 10887 ft 335 kts 163°
2026-04-15 06:06 60.64421 -1.77169 10726 ft 314 kts 163°
2026-04-15 06:06 60.62396 -1.75881 10583 ft 296 kts 163°
2026-04-15 06:07 60.60487 -1.74669 10455 ft 280 kts 163°
2026-04-15 06:07 60.58683 -1.73526 10342 ft 271 kts 163°
2026-04-15 06:07 60.56919 -1.72412 10234 ft 263 kts 163°
2026-04-15 06:07 60.55163 -1.71302 10139 ft 267 kts 163°
2026-04-15 06:08 60.53399 -1.70190 10029 ft 261 kts 163°
2026-04-15 06:08 60.51697 -1.69114 9833 ft 254 kts 163°
2026-04-15 06:08 60.50010 -1.68051 9562 ft 253 kts 163°
2026-04-15 06:08 60.48337 -1.66998 9293 ft 251 kts 163°
2026-04-15 06:09 60.46670 -1.65951 9021 ft 250 kts 163°
2026-04-15 06:09 60.45011 -1.64910 8747 ft 249 kts 163°
2026-04-15 06:09 60.43389 -1.63888 8463 ft 247 kts 163°
2026-04-15 06:09 60.41745 -1.62858 8182 ft 247 kts 163°
2026-04-15 06:10 60.40111 -1.61837 7914 ft 245 kts 163°
2026-04-15 06:10 60.38482 -1.60819 7633 ft 244 kts 163°
2026-04-15 06:10 60.36862 -1.59807 7350 ft 243 kts 163°
2026-04-15 06:10 60.35255 -1.58805 7077 ft 241 kts 162°
2026-04-15 06:11 60.33657 -1.57802 6802 ft 240 kts 162°
2026-04-15 06:11 60.32069 -1.56816 6532 ft 238 kts 162°
2026-04-15 06:11 60.30488 -1.55834 6261 ft 237 kts 162°
2026-04-15 06:11 60.28939 -1.54874 5989 ft 235 kts 162°
2026-04-15 06:12 60.27387 -1.53912 5736 ft 233 kts 162°
2026-04-15 06:12 60.25843 -1.52954 5487 ft 232 kts 162°
2026-04-15 06:12 60.24309 -1.52006 5234 ft 229 kts 162°
2026-04-15 06:12 60.22790 -1.51065 4978 ft 228 kts 161°
2026-04-15 06:13 60.21284 -1.50131 4728 ft 225 kts 161°
2026-04-15 06:13 60.19796 -1.49208 4483 ft 222 kts 161°
2026-04-15 06:13 60.18322 -1.48301 4231 ft 221 kts 161°
2026-04-15 06:13 60.16858 -1.47399 3977 ft 219 kts 161°
2026-04-15 06:14 60.15405 -1.46504 3731 ft 217 kts 161°
2026-04-15 06:14 60.13967 -1.45623 3509 ft 215 kts 160°
2026-04-15 06:14 60.12565 -1.44762 3249 ft 213 kts 160°
2026-04-15 06:14 60.11161 -1.43896 2994 ft 211 kts 159°
2026-04-15 06:15 60.09779 -1.43049 2880 ft 203 kts 159°
2026-04-15 06:15 60.08454 -1.42235 2772 ft 194 kts 159°
2026-04-15 06:15 60.07232 -1.41489 2696 ft 175 kts 159°
2026-04-15 06:15 60.06115 -1.40811 2602 ft 163 kts 158°
2026-04-15 06:16 60.05052 -1.40158 2530 ft 158 kts 158°
2026-04-15 06:16 60.04013 -1.39524 2369 ft 152 kts 158°
2026-04-15 06:16 60.03014 -1.38984 2182 ft 148 kts 170°
2026-04-15 06:16 60.01983 -1.39564 2136 ft 166 kts 198°
2026-04-15 06:17 60.01174 -1.41293 2132 ft 177 kts 226°
2026-04-15 06:17 60.00458 -1.43277 2096 ft 174 kts 222°
2026-04-15 06:17 59.99594 -1.44790 2101 ft 159 kts 192°
2026-04-15 06:17 59.98584 -1.44802 2093 ft 143 kts 147°
2026-04-15 06:18 59.97764 -1.43691 2092 ft 144 kts 149°
2026-04-15 06:18 59.96892 -1.42729 2096 ft 144 kts 146°
2026-04-15 06:18 59.96064 -1.41604 2107 ft 145 kts 144°
2026-04-15 06:18 59.95263 -1.40461 2083 ft 133 kts 143°
2026-04-15 06:19 59.94582 -1.39472 2116 ft 118 kts 143°
2026-04-15 06:19 59.93901 -1.38472 1953 ft 123 kts 142°
2026-04-15 06:19 59.93213 -1.37459 1744 ft 121 kts 143°
2026-04-15 06:19 59.92533 -1.36453 1502 ft 122 kts 142°
2026-04-15 06:20 59.91809 -1.35420 1215 ft 132 kts 143°
2026-04-15 06:20 59.91088 -1.34346 1005 ft 129 kts 141°
2026-04-15 06:20 59.90370 -1.33294 841 ft 128 kts 143°
2026-04-15 06:20 59.89656 -1.32212 615 ft 130 kts 140°
2026-04-15 06:21 59.88927 -1.31154 339 ft 128 kts 141°
2026-04-15 06:21 59.88230 -1.30122 132 ft 125 kts 142°
2026-04-15 06:21 59.87636 -1.29261 45 ft 52 kts 152°
2026-04-15 06:21 59.87497 -1.29024 42 ft 0 kts 138°
2026-04-15 06:22 59.87485 -1.29007 41 ft 9 kts 146°
2026-04-15 06:22 59.87409 -1.28912 43 ft 14 kts 147°
2026-04-15 06:22 59.87366 -1.28780 44 ft 12 kts 73°
2026-04-15 06:22 59.87383 -1.28741 43 ft 0 kts 32°
2026-04-15 06:23 59.87395 -1.28731 41 ft 10 kts 17°
2026-04-15 06:23 59.87463 -1.28775 40 ft 13 kts 336°
2026-04-15 06:23 59.87536 -1.28862 42 ft 10 kts 324°
2026-04-15 06:24 59.87607 -1.28966 43 ft 10 kts 322°
2026-04-15 06:24 59.87665 -1.28987 41 ft 11 kts 27°
2026-04-15 06:24 59.87696 -1.28941 43 ft 0 kts 29°